Погода в Щенникове

Россия / Ивановская область     56°51′32″N   39°36′10″E
темп.,
°C
ветер,
м/с
пор.,
м/с
влажн.,
%
обл.,
%
осадки,
мм/ч
давл.,
гПа
погр.,
м
20 января, ср
ср2000:00−15зсз249693 0.1 1016113
03:00−14зсз369697 0.3 1016152
06:00−14з3795100 0.1 1016193
09:00−14зсз389598 0.3 1016236
12:00−12зсз379485 0.0 1017269
15:00−12з389593 0.1 1017281
18:00−15з389795 0.0 1019164
21:00−14з399593 0.1 1019228
21 января, чт
чт2100:00−15з379590 0.0 1020160
03:00−17зюз369582 0.0 1020119
06:00−15юз3790100 0.0 1019176
09:00−14ююз4987100 0.0 1018246
12:00−12ююз4994100 0.1 1015315
15:00−11ююз4895100 1.9 1013516
18:00−10юз3795100 1.3 1012416
21:00−12юз2396100 1.4 101284
22 января, пт
пт2200:00−12юз2295100 0.0 101226
03:00−11ю229699 0.1 101264
06:00−9юв2596100 0.3 1011170
09:00−7ю3896100 0.9 1010279
12:00−3ю3697100 0.1 1009233
15:00+1юз37100100 0.1 1009262
18:00+1юз3799100 0.1 1009321
21:00+1ююз3995100 0.1 1008418
23 января, сб
сб2300:00+1ююз51098100 0.1 1008489
03:00+1юз51199100 0.3 1007477
06:00+1юз4998100 0.1 1007379
09:00+1ююз4898100 0.3 1008359
12:000ююз41095100 0.4 1008439
15:00+1юз410100100 0.7 1008384
18:00+1юз4998100 0.2 1008294
21:00+1юз4898100 0.3 1009254
24 января, вс
вс2400:00+1ююз3795100 0.0 1010182
03:00+1ююз379796 0.0 1010251
06:00+1ю3898100 0.0 1010299
09:00+1ю3798100 0.0 1010284
12:00+2ю410100100 0.0 1010356
15:00+1ююв310100100 0.0 1010339
18:00+1ююв4999100 0.0 1010266
21:00+2ю41399100 0.1 1009383